Simultaneous Nadir Overpasses (SNOs) Predictions

Prediction of SNOs between LANDSAT-8 and METOP-B Satellite Orbit:

Table of predicted SNOs for the next 14.0 days since TLE Epoch: 1/10/2025
Index Date (LANDSAT-8) Time (LANDSAT-8) Lat,Lon (LANDSAT-8) SZA (LANDSAT-8 ) Date (METOP-B) Time (METOP-B) Lat,Lon (METOP-B) SZA (METOP-B ) Distance(km) Time Diff (sec)
1 01/12/2025 14:19:10 81.42, 10.31 105.13 01/12/2025 14:18:00 81.43, 10.40 105.11 1.65 70
2 01/12/2025 15:08:36 -81.44, 178.23 74.85 01/12/2025 15:08:40 -81.43, 178.18 74.85 1.18 4
3 01/15/2025 09:53:25 81.42, 76.68 104.60 01/15/2025 09:52:37 81.43, 76.67 104.58 0.65 48
4 01/15/2025 10:42:51 -81.43,-115.37 75.37 01/15/2025 10:43:17 -81.43,-115.51 75.38 2.49 26
5 01/18/2025 05:27:39 81.42, 143.18 104.03 01/18/2025 05:27:13 81.43, 143.24 104.03 1.11 26
6 01/18/2025 06:17:05 -81.44, -48.85 75.94 01/18/2025 06:17:53 -81.43, -48.92 75.93 1.32 48
7 01/21/2025 01:01:51 81.43,-150.21 103.43 01/21/2025 01:01:48 81.43,-150.31 103.42 1.75 3
8 01/21/2025 01:51:18 -81.43, 17.40 76.59 01/21/2025 01:52:28 -81.43, 17.57 76.54 2.90 70
9 01/23/2025 19:46:38 -81.42, 108.47 77.25 01/23/2025 19:45:44 -81.43, 108.52 77.26 0.81 54



Historial Predications of SNOs between LANDSAT-8 and METOP-B
